LA5NNA Weather Reports


time (UTC)temp
F
wind
direction
speed
knots
gust
knots
rain 1hr
in
rain 24hr
in
rain mn
in
humidity
%
barometer
mb
20260506002508 42 325 2.6 7.0 0.00 0.00 0.00 63 1012.5
20260506001508 42 335 0.9 2.6 0.00 0.00 0.00 63 1012.4
20260506001008 42 343 1.7 5.2 0.00 0.00 0.00 63 1012.4
20260506000508 42 315 1.7 5.2 0.00 0.00 0.00 63 1012.5
20260506000011 41 15 1.7 2.6 0.00 0.00 0.00 62 1012.3
20260505235508 41 27 1.7 5.2 0.00 0.00 0.00 62 1012.4
20260505235008 41 330 1.7 5.2 0.00 0.00 0.00 62 1012.4
20260505234507 41 25 2.6 6.1 0.00 0.00 0.00 62 1012.5
20260505234008 41 350 1.7 7.0 0.00 0.00 0.00 62 1012.4
20260505233011 41 348 2.6 7.8 0.00 0.00 0.00 62 1012.4
20260505232507 41 334 5.2 10.4 0.00 0.00 0.00 62 1012.4
20260505232008 41 332 4.3 8.7 0.00 0.00 0.00 62 1012.4
20260505231507 42 345 4.3 8.7 0.00 0.00 0.00 62 1012.5
20260505230507 42 325 5.2 10.4 0.00 0.00 0.00 62 1012.4
20260505225508 42 323 4.3 7.8 0.00 0.00 0.00 62 1012.5
20260505225007 42 327 2.6 7.0 0.00 0.00 0.00 62 1012.4
20260505224508 42 290 1.7 6.1 0.00 0.00 0.00 61 1012.5
20260505224007 42 325 4.3 10.4 0.00 0.00 0.00 61 1012.4
20260505223507 42 322 5.2 7.8 0.00 0.00 0.00 61 1012.4
20260505223011 42 325 4.3 7.8 0.00 0.00 0.00 61 1012.6
20260505222507 42 321 1.7 11.3 0.00 0.00 0.00 61 1012.6
20260505222008 42 336 2.6 7.8 0.00 0.00 0.00 61 1012.3
20260505221507 42 342 4.3 8.7 0.00 0.00 0.00 61 1012.3
20260505221007 42 335 2.6 8.7 0.00 0.00 0.00 61 1012.5
20260505220012 42 338 6.1 11.3 0.00 0.00 0.00 60 1012.3
20260505215507 42 328 4.3 10.4 0.00 0.00 0.00 60 1012.5
20260505215008 42 327 5.2 11.3 0.00 0.00 0.00 60 1012.5
20260505214507 42 326 4.3 11.3 0.00 0.00 0.00 60 1012.5
20260505214007 43 327 6.1 10.4 0.00 0.00 0.00 60 1012.4
20260505213507 43 326 6.1 11.3 0.00 0.00 0.00 60 1012.3
20260505213011 43 335 6.1 11.3 0.00 0.00 0.00 60 1012.4
20260505212508 43 331 4.3 10.4 0.00 0.00 0.00 60 1012.4
20260505212008 43 318 6.1 10.4 0.00 0.00 0.00 60 1012.4
20260505211008 43 326 4.3 11.3 0.00 0.00 0.00 62 1012.5
20260505210507 43 324 5.2 8.7 0.00 0.00 0.00 62 1012.4
20260505210011 43 324 5.2 8.7 0.00 0.00 0.00 62 1012.3
20260505205508 43 322 6.1 8.7 0.00 0.00 0.00 62 1012.2
20260505205007 43 319 5.2 7.8 0.00 0.00 0.00 62 1012.2
20260505204508 43 319 6.1 10.4 0.00 0.00 0.00 63 1012.2
20260505204007 44 318 7.0 8.7 0.00 0.00 0.00 63 1012.1
20260505203507 44 323 7.8 10.4 0.00 0.00 0.00 63 1012.0
20260505203011 44 318 7.0 10.4 0.00 0.00 0.00 63 1012.1
20260505202507 44 313 7.8 11.3 0.00 0.00 0.00 63 1012.1
20260505202008 44 311 7.8 11.3 0.00 0.00 0.00 63 1012.0
20260505201008 44 319 10.4 13.0 0.00 0.00 0.00 64 1011.8
20260505200507 44 318 9.6 13.9 0.00 0.00 0.00 64 1011.8
20260505200011 44 316 8.7 13.0 0.00 0.00 0.00 65 1011.7
20260505195507 44 321 8.7 13.0 0.00 0.00 0.00 65 1011.6
20260505195007 44 319 8.7 13.9 0.00 0.00 0.00 65 1011.7
20260505194507 44 317 10.4 13.9 0.00 0.00 0.00 66 1011.7
20260505194007 44 314 9.6 13.9 0.00 0.00 0.00 65 1011.6
20260505193507 44 315 8.7 14.8 0.00 0.00 0.00 65 1011.6
20260505193011 44 316 10.4 13.9 0.00 0.00 0.00 65 1011.6
20260505192007 44 311 9.6 13.9 0.00 0.00 0.00 64 1011.6
20260505191507 45 311 10.4 14.8 0.00 0.00 0.00 64 1011.7
20260505190011 45 312 10.4 15.6 0.00 0.00 0.00 63 1011.4
20260505185007 45 314 10.4 17.4 0.00 0.00 0.00 63 1011.3
20260505184507 45 318 11.3 14.8 0.00 0.00 0.00 64 1011.2
20260505184007 45 311 10.4 13.9 0.00 0.00 0.00 63 1011.3
20260505183507 45 302 8.7 13.9 0.00 0.00 0.00 63 1011.3
20260505182507 46 300 11.3 17.4 0.00 0.00 0.00 63 1011.2
20260505181507 46 304 13.0 19.1 0.00 0.00 0.00 64 1011.2
20260505181007 46 309 12.2 17.4 0.00 0.00 0.00 64 1011.3
20260505180507 46 304 10.4 17.4 0.00 0.00 0.00 64 1011.3
20260505180011 46 311 10.4 18.2 0.00 0.00 0.00 65 1011.2
20260505175507 46 296 12.2 15.6 0.00 0.00 0.00 65 1011.3
20260505175007 46 299 13.0 17.4 0.00 0.00 0.00 66 1011.3
20260505174507 46 300 13.0 17.4 0.00 0.00 0.00 67 1011.2
20260505173507 46 301 14.8 20.0 0.00 0.00 0.00 66 1011.2
20260505173011 46 304 15.6 21.7 0.00 0.00 0.00 66 1011.2
20260505172507 46 303 14.8 20.0 0.00 0.00 0.00 65 1011.2
20260505172007 47 291 15.6 20.9 0.00 0.00 0.00 65 1011.2
20260505171507 47 301 12.2 20.0 0.00 0.00 0.00 64 1011.2
20260505171007 47 302 13.9 20.0 0.00 0.00 0.00 64 1011.3
20260505170507 47 301 11.3 18.2 0.00 0.00 0.00 64 1011.3
20260505170010 47 293 12.2 18.2 0.00 0.00 0.00 64 1011.2
20260505165506 47 299 13.0 18.2 0.00 0.00 0.00 64 1011.1
20260505165007 47 290 13.9 18.2 0.00 0.00 0.00 63 1011.1
20260505164507 47 304 15.6 22.6 0.00 0.00 0.00 63 1011.1
20260505164007 47 299 17.4 22.6 0.00 0.00 0.00 63 1011.0
20260505163506 48 298 15.6 22.6 0.00 0.00 0.00 63 1011.0
20260505163010 48 298 15.6 24.3 0.00 0.00 0.00 63 1011.2
20260505162507 48 293 15.6 20.9 0.00 0.00 0.00 63 1011.2
20260505162007 48 292 13.9 21.7 0.00 0.00 0.00 63 1011.1
20260505161507 48 301 14.8 21.7 0.00 0.00 0.00 63 1011.3
20260505161007 48 305 16.5 21.7 0.00 0.00 0.00 64 1011.1
20260505153010 48 299 16.5 22.6 0.00 0.00 0.00 63 1011.2
20260505152506 48 301 14.8 20.0 0.00 0.00 0.00 63 1011.3
20260505152007 48 298 16.5 24.3 0.00 0.00 0.00 64 1011.2
20260505151507 48 296 15.6 20.9 0.00 0.00 0.00 64 1011.3
20260505151007 48 302 14.8 20.9 0.00 0.00 0.00 65 1011.3
20260505150507 48 289 14.8 20.9 0.00 0.00 0.00 65 1011.4
20260505140506 49 284 15.6 20.9 0.00 0.00 0.00 65 1011.3
20260505125007 48 278 10.4 18.2 0.00 0.00 0.00 67 1011.6
20260505124006 47 294 13.9 20.9 0.00 0.00 0.00 66 1011.4
20260505123507 47 296 14.8 19.1 0.00 0.00 0.00 66 1011.5
20260505123010 47 296 13.9 19.1 0.00 0.00 0.00 66 1011.5
20260505122507 47 290 11.3 18.2 0.00 0.00 0.00 66 1011.5
20260505122006 47 288 13.0 18.2 0.00 0.00 0.00 66 1011.5
20260505121007 47 300 11.3 18.2 0.00 0.00 0.00 67 1011.4
20260505120506 46 291 11.3 18.2 0.00 0.00 0.00 66 1011.4
20260505120010 46 295 13.9 18.2 0.00 0.00 0.00 67 1011.6
20260505115506 46 289 13.0 18.2 0.00 0.00 0.00 66 1011.6
20260505115007 46 285 12.2 20.9 0.00 0.00 0.00 66 1011.6
20260505114506 46 287 12.2 19.1 0.00 0.00 0.00 66 1011.6
20260505114007 46 289 11.3 19.1 0.00 0.00 0.00 66 1011.7
20260505113506 46 283 11.3 17.4 0.00 0.00 0.00 66 1011.6
20260505113010 47 291 11.3 19.1 0.00 0.00 0.00 66 1011.6
20260505112007 46 295 13.9 19.1 0.00 0.00 0.00 67 1011.6
20260505111006 46 289 13.0 20.0 0.00 0.00 0.00 68 1011.5
20260505110506 46 275 12.2 20.9 0.00 0.00 0.00 68 1011.5
20260505102007 46 266 11.3 17.4 0.00 0.00 0.00 67 1011.4
20260505101006 46 267 10.4 15.6 0.00 0.00 0.00 67 1011.2
20260505100506 46 269 8.7 17.4 0.00 0.00 0.00 66 1011.3
20260505100011 45 272 8.7 17.4 0.00 0.00 0.00 66 1011.3
20260505095506 45 266 8.7 14.8 0.00 0.00 0.00 65 1011.3
20260505094506 45 261 8.7 14.8 0.00 0.00 0.00 65 1011.3
20260505093507 46 265 10.4 15.6 0.00 0.00 0.00 63 1011.4
20260505093009 46 269 10.4 15.6 0.00 0.00 0.00 63 1011.5
20260505092506 46 278 9.6 14.8 0.00 0.00 0.00 62 1011.6
20260505092006 46 272 9.6 14.8 0.00 0.00 0.00 62 1011.5
20260505091506 46 277 8.7 14.8 0.00 0.00 0.00 61 1011.5
20260505090506 46 279 7.0 10.4 0.00 0.00 0.00 61 1011.6
20260505090010 46 310 6.1 10.4 0.00 0.00 0.00 61 1011.7
20260505085506 46 265 6.1 12.2 0.00 0.00 0.00 61 1011.7
20260505085006 46 276 7.0 12.2 0.00 0.00 0.00 61 1011.6
20260505084506 46 284 6.1 8.7 0.00 0.00 0.00 61 1011.7
20260505084006 46 291 6.1 10.4 0.00 0.00 0.00 61 1011.7
20260505083507 46 296 5.2 8.7 0.00 0.00 0.00 62 1011.6
20260505083010 46 300 4.3 7.8 0.00 0.00 0.00 62 1011.6
20260505082006 45 293 2.6 6.1 0.00 0.00 0.00 62 1011.3
20260505081505 45 29 2.6 5.2 0.00 0.00 0.00 62 1011.3
20260505081006 45 10 4.3 7.0 0.00 0.00 0.00 63 1011.3
20260505080010 44 14 2.6 8.7 0.00 0.00 0.00 64 1011.2
20260505075506 44 29 2.6 7.0 0.00 0.00 0.00 63 1011.2
20260505075006 44 355 4.3 12.2 0.00 0.00 0.00 63 1011.2
20260505074008 43 322 4.3 7.8 0.00 0.00 0.00 63 1011.3
20260505073509 43 324 6.1 11.3 0.00 0.00 0.00 63 1011.3
20260505073013 42 315 7.8 12.2 0.00 0.00 0.00 62 1011.3
20260505072508 42 316 8.7 12.2 0.00 0.00 0.00 63 1011.6
20260505072008 42 317 6.1 11.3 0.00 0.00 0.00 63 1011.5
20260505071509 42 313 6.1 11.3 0.00 0.00 0.00 64 1011.4
20260505071008 42 324 5.2 11.3 0.00 0.00 0.00 65 1011.4
20260505070509 42 350 3.5 12.2 0.00 0.00 0.00 64 1011.6
20260505070012 41 337 6.1 12.2 0.00 0.00 0.00 64 1011.6
20260505065509 41 322 6.1 15.6 0.00 0.00 0.00 64 1011.6
20260505065009 41 311 10.4 17.4 0.00 0.00 0.00 65 1011.6
20260505064508 41 317 8.7 13.9 0.00 0.00 0.00 65 1011.6
20260505064008 41 314 10.4 14.8 0.00 0.00 0.00 65 1011.6
20260505063012 40 313 9.6 14.8 0.00 0.00 0.00 66 1011.7
20260505062009 40 311 10.4 14.8 0.00 0.00 0.00 67 1011.6
20260505061508 40 317 11.3 15.6 0.00 0.00 0.00 67 1011.6
20260505061009 40 316 11.3 17.4 0.00 0.00 0.00 67 1011.6
20260505060508 40 311 10.4 14.8 0.00 0.00 0.00 68 1011.6
20260505060012 40 311 10.4 14.8 0.00 0.00 0.00 69 1011.6
20260505055510 39 309 9.6 13.0 0.00 0.00 0.00 69 1011.6
20260505055008 39 312 7.8 12.2 0.00 0.00 0.00 69 1011.6
20260505054508 39 312 8.7 13.9 0.00 0.00 0.00 69 1011.5
20260505054009 39 313 6.1 8.7 0.00 0.00 0.00 69 1011.3
20260505053012 39 310 5.2 7.8 0.00 0.00 0.00 69 1011.3
20260505052008 39 315 5.2 7.8 0.00 0.00 0.00 70 1011.4
20260505051508 39 321 5.2 7.8 0.00 0.00 0.00 70 1011.4
20260505051008 39 319 7.0 8.7 0.00 0.00 0.00 70 1011.5
20260505050509 39 312 6.1 8.7 0.00 0.00 0.00 71 1011.5
20260505041508 38 307 7.0 10.4 0.00 0.00 0.00 71 1011.3
20260505041008 39 310 6.1 10.4 0.00 0.00 0.00 71 1011.3
20260505040508 39 313 6.1 8.7 0.00 0.00 0.00 71 1011.1
20260505040011 39 316 6.1 8.7 0.00 0.00 0.00 71 1011.1
20260505035508 39 316 7.8 11.3 0.00 0.00 0.00 71 1011.3
20260505035008 39 313 7.8 11.3 0.00 0.00 0.00 71 1011.3
20260505034008 38 319 7.8 11.3 0.00 0.00 0.00 71 1011.2
20260505033508 38 312 8.7 12.2 0.00 0.00 0.00 71 1011.2
20260505033012 38 318 7.8 11.3 0.00 0.00 0.00 71 1011.3
20260505032008 38 313 10.4 13.0 0.00 0.00 0.00 71 1011.4
20260505031008 38 302 8.7 13.9 0.00 0.00 0.00 70 1011.3
20260505030508 38 302 8.7 12.2 0.00 0.00 0.00 70 1011.2
20260505030012 39 303 8.7 12.2 0.00 0.00 0.00 70 1011.3
20260505025508 39 302 6.1 8.7 0.00 0.00 0.00 70 1011.1
20260505025009 39 295 6.1 10.4 0.00 0.00 0.00 70 1011.1
20260505024508 39 303 7.0 8.7 0.00 0.00 0.00 70 1011.1
20260505024008 39 292 6.1 8.7 0.00 0.00 0.00 70 1011.1
20260505023508 39 299 6.1 8.7 0.00 0.00 0.00 70 1011.3
20260505022508 40 306 6.1 7.8 0.00 0.00 0.00 70 1011.3
20260505022008 40 313 5.2 7.8 0.00 0.00 0.00 70 1011.3
20260505021508 40 314 5.2 7.8 0.00 0.00 0.00 70 1011.2
20260505021008 40 310 4.3 7.8 0.00 0.00 0.00 70 1011.2
20260505020508 40 312 7.0 8.7 0.00 0.00 0.00 70 1011.2
20260505020011 40 318 7.0 8.7 0.00 0.00 0.00 70 1011.1
20260505015008 41 319 6.1 11.3 0.00 0.00 0.00 70 1011.1
20260505014508 41 314 6.1 10.4 0.00 0.00 0.00 71 1010.8
20260505013508 41 317 4.3 7.8 0.00 0.00 0.00 72 1010.9
20260505013012 41 325 3.5 6.1 0.00 0.00 0.00 72 1010.9
20260505012008 42 316 5.2 11.3 0.00 0.00 0.00 73 1010.9
20260505011508 42 319 2.6 6.1 0.00 0.00 0.00 73 1010.8
20260505011008 42 321 3.5 6.1 0.00 0.00 0.00 73 1010.9
20260505010507 42 318 2.6 6.1 0.00 0.00 0.00 73 1010.7
20260505005508 42 322 3.5 6.1 0.00 0.00 0.00 74 1010.8
20260505005008 42 308 1.7 5.2 0.00 0.00 0.00 74 1010.8
20260505004508 42 329 1.7 5.2 0.00 0.00 0.00 74 1010.9
20260505004007 42 338 2.6 6.1 0.00 0.00 0.00 74 1010.7
20260505003507 42 346 3.5 8.7 0.00 0.00 0.00 74 1010.6
20260505003012 41 341 2.6 6.1 0.00 0.00 0.00 74 1010.5